Location: Tamazert
(32.6352°N, 5.2072°W)
Time: 04:27:17
(UTC+00:00)

CZ-4C R/B - Pass Details

Date: 22 May 2022
Orbit: 582 x 1419 km, 63.4° (Epoch: 24 June)

Event Time Altitude Azimuth Distance (km) Brightness Sun altitude
Rises 01:39:36 0° 333° (NNW) 3,971 6.2 -33.5°
Reaches altitude 10° 01:42:12 10° 337° (NNW) 3,115 5.6 -33.3°
Maximum altitude 01:49:51 63° 58° (ENE) 1,466 3.4 -32.6°
Enters shadow 01:55:22 24° 132° (SE) 2,531 4.5 -32.1°
